Regional Weather Roundup
Issued by NWS

Home | Current Version | Previous Version | Text Only | Print | Product List | Glossary Off
Versions: 1 2 3 4 5 6 7 8 9 10 11 12 13 14 15 16 17 18 19 20 21 22 23 24 25 26 27 28 29 30 31 32 33 34 35 36 37 38 39 40 41 42 43 44 45 46 47 48 49 50

000
ASUS44 KMEG 270710
RWRTN
TENNESSEE HOURLY STATE WEATHER ROUNDUP
NATIONAL WEATHER SERVICE MEMPHIS TN
200 AM CDT SAT MAY 27 2017

TNZ002-004-019-021-049-052-054-088>092-270800-
WEST TENNESSEE

CITY           SKY/WX    TMP DP  RH WIND       PRES   REMARKS
MEMPHIS INTL   MOCLDY    78  70  76 SW9       29.89F
NWS MEMPHIS      N/A     77 N/A N/A MISG        N/A
JACKSON        CLEAR     74  67  78 SW8       29.89F
DYERSBURG        N/A    N/A N/A N/A MISG        N/A
COVINGTON      CLEAR     73  68  83 CALM      29.88S
UNION CITY     CLOUDY    73  68  83 CALM      29.87S
BOLIVAR        PTCLDY    73  66  78 S3        29.90S
PARIS          CLOUDY    72  64  78 SW5       29.88S
HUNTINGDON     CLOUDY    73  64  73 CALM      29.89R
LEXINGTON      MOCLDY    70  63  78 MISG      29.90F
SELMER         CLEAR     73  64  73 S3        29.91F
SAVANNAH       CLOUDY    72  64  78 S6        29.91F
$$

TNZ008-025-027-028-033-062-065-066-270800-
NORTH MIDDLE TENNESSEE

CITY           SKY/WX    TMP DP  RH WIND       PRES   REMARKS
NASHVILLE      CLOUDY    76  61  59 S8        29.92F
PORTLAND       CLOUDY    73  61  64 S7        29.90F
CLARKSVILLE    CLOUDY    74  60  61 S8        29.88F
SMYRNA         CLOUDY    73  62  68 S5        29.93F
COOKEVILLE     CLOUDY    72  61  68 SW7       29.94F
GALLATIN       CLOUDY    73  63  68 CALM      29.94S
CROSSVILLE     CLOUDY    67  58  72 CALM      30.01F
$$

TNZ061-075-076-078-094-096-097-270800-
SOUTH MIDDLE TENNESSEE

CITY           SKY/WX    TMP DP  RH WIND       PRES   REMARKS
FAYETTEVILLE   CLOUDY    72  63  73 S6        29.97S
TULLAHOMA      MOCLDY    66  61  82 S5        29.98F
WINCHESTER     CLOUDY    66  63  88 CALM        N/A
MCMINNVILLE    CLOUDY    73  63  68 SW7       29.96F
COLUMBIA       CLOUDY    72  63  73 SW6       29.91F
SHELBYVILLE    CLOUDY    70  63  78 S7        29.95S
$$

TNZ017-018-042-046-047-270800-
NORTHEAST TENNESSEE

CITY           SKY/WX    TMP DP  RH WIND       PRES   REMARKS
TRI CITIES     CLOUDY    61  59  93 CALM      30.01F
ELIZABETHTON   CLOUDY    61  57  88 CALM      30.02F
$$

TNZ012-013-036-069-073-074-270800-
CENTRAL EAST TENNESSEE

CITY           SKY/WX    TMP DP  RH WIND       PRES   REMARKS
KNOXVILLE      MOCLDY    69  60  73 SW9       29.97F
OAK RIDGE      PTCLDY    65  61  87 CALM      29.99F
DOWNTOWN KNOXV CLOUDY    64  63  94 CALM      29.98F
GATLINBURG     CLOUDY    63  59  88 CALM      29.98F
MORRISTOWN     CLOUDY    64  61  88 CALM      29.99S
JACKSBORO      CLOUDY    64  63  94 CALM      30.00F
$$

TNZ083-085-099-270800-
SOUTHEAST TENNESSEE

CITY           SKY/WX    TMP DP  RH WIND       PRES   REMARKS
CHATTANOOGA    CLOUDY    69  63  81 CALM      29.99F
$$

SKY/WX REPORTED AS FAIR MEANS FEW OR NO CLOUDS BELOW
12 THOUSAND FEET.





USA.gov is the U.S. government's official web portal to all federal, state and local government web resources and services.